When you browse on this site, cookies collect data to enhance your experience and personalize the content and advertising you see.
Visit our Privacy Policy to learn more. By continuing to use the site, you agree to this use of cookies and data.
  • In Portugal
  • List of Countries
  • For 7 days
  • Water Temperature
  • Weather Map
  • Weather Widgets
  • user-avatar
    Login

    Hourly Weather Solden

    Today, 27 May, Wednesday

    Time Temperature Precipitation Wind Pressure Humidity
    00:00 -3°C° 0 mm 2 mps 589 mmHg 78%
    01:00 -4°C° 0 mm 2 mps 589 mmHg 77%
    02:00 -2°C° 0 mm 1 mps 588 mmHg 75%
    03:00 -2°C° 0 mm 1 mps 588 mmHg 73%
    04:00 -3°C° 0 mm 1 mps 588 mmHg 71%
    05:00 -1°C° 0 mm 1 mps 589 mmHg 64%
    06:00 +1°C° 0 mm 1 mps 589 mmHg 58%
    07:00 +2°C° 0 mm 0 mps 590 mmHg 51%
    08:00 +5°C° 0 mm 1 mps 591 mmHg 46%
    09:00 +7°C° 0 mm 1 mps 592 mmHg 40%
    10:00 +9°C° 0 mm 1 mps 593 mmHg 35%
    11:00 +10°C° 0 mm 1 mps 593 mmHg 34%
    12:00 +11°C° 0 mm 1 mps 593 mmHg 33%
    13:00 +12°C° 0 mm 1 mps 593 mmHg 31%
    14:00 +12°C° 0 mm 2 mps 593 mmHg 33%
    15:00 +12°C° 0 mm 2 mps 593 mmHg 34%
    16:00 +12°C° 0 mm 2 mps 593 mmHg 35%
    17:00 +9°C° 0 mm 2 mps 592 mmHg 46%
    18:00 +7°C° 0 mm 2 mps 591 mmHg 56%
    19:00 +7°C° 0 mm 1 mps 590 mmHg 67%
    20:00 +4°C° 0 mm 2 mps 590 mmHg 71%
    21:00 +2°C° 0 mm 2 mps 589 mmHg 75%
    22:00 +1°C° 0 mm 2 mps 589 mmHg 79%
    23:00 -1°C° 0 mm 2 mps 588 mmHg 79%

    Tomorrow, 28 May, Thursday

    Time Temperature Precipitation Wind Pressure Humidity
    00:00 +1°C° 0 mm 1 mps 588 mmHg 78%
    01:00 0°C° 0 mm 1 mps 588 mmHg 78%
    02:00 0°C° 0 mm 1 mps 588 mmHg 77%
    03:00 -2°C° 0 mm 2 mps 587 mmHg 77%
    04:00 -2°C° 0 mm 2 mps 587 mmHg 76%
    05:00 +2°C° 0 mm 1 mps 588 mmHg 70%
    06:00 +3°C° 0 mm 1 mps 588 mmHg 64%
    07:00 +5°C° 0 mm 1 mps 589 mmHg 58%
    08:00 +7°C° 0 mm 1 mps 589 mmHg 52%
    09:00 +8°C° 0 mm 1 mps 590 mmHg 45%
    10:00 +9°C° 0 mm 2 mps 591 mmHg 38%
    11:00 +10°C° 0 mm 2 mps 591 mmHg 38%
    12:00 +12°C° 0 mm 2 mps 591 mmHg 37%
    13:00 +13°C° 0 mm 2 mps 591 mmHg 37%
    14:00 +12°C° 0.1 mm 2 mps 590 mmHg 40%
    15:00 +11°C° 0.1 mm 3 mps 590 mmHg 44%
    16:00 +10°C° 0.1 mm 3 mps 589 mmHg 47%
    17:00 +9°C° 0.1 mm 2 mps 589 mmHg 56%
    18:00 +7°C° 0.1 mm 2 mps 588 mmHg 64%
    19:00 +6°C° 0.1 mm 2 mps 587 mmHg 73%
    20:00 +4°C° 0.1 mm 2 mps 587 mmHg 77%
    21:00 +3°C° 0.1 mm 2 mps 586 mmHg 81%
    22:00 +1°C° 0.1 mm 2 mps 586 mmHg 85%
    23:00 -1°C° 0 mm 2 mps 585 mmHg 85%

    Day after tomorrow, 29 May, Friday

    Time Temperature Precipitation Wind Pressure Humidity
    00:00 -1°C° 0 mm 2 mps 585 mmHg 86%
    01:00 -2°C° 0 mm 2 mps 585 mmHg 86%
    02:00 -2°C° 0 mm 2 mps 584 mmHg 85%
    03:00 -3°C° 0 mm 2 mps 584 mmHg 83%
    04:00 -3°C° 0 mm 2 mps 584 mmHg 82%
    05:00 +1°C° 0 mm 1 mps 584 mmHg 74%
    06:00 +2°C° 0 mm 1 mps 585 mmHg 66%
    07:00 +4°C° 0 mm 1 mps 585 mmHg 58%
    08:00 +5°C° 0 mm 1 mps 586 mmHg 51%
    09:00 +7°C° 0 mm 1 mps 587 mmHg 44%
    10:00 +9°C° 0 mm 1 mps 587 mmHg 36%
    11:00 +8°C° 0 mm 2 mps 587 mmHg 36%
    12:00 +9°C° 0 mm 2 mps 587 mmHg 36%
    13:00 +9°C° 0 mm 2 mps 587 mmHg 36%
    14:00 +9°C° 0.1 mm 2 mps 587 mmHg 40%
    15:00 +9°C° 0.1 mm 2 mps 586 mmHg 44%
    16:00 +8°C° 0.1 mm 2 mps 586 mmHg 47%
    17:00 +7°C° 0.3 mm 2 mps 585 mmHg 58%
    18:00 +6°C° 0.3 mm 2 mps 585 mmHg 68%
    19:00 +5°C° 0.3 mm 1 mps 584 mmHg 78%
    20:00 +4°C° 0.2 mm 1 mps 584 mmHg 82%
    21:00 +2°C° 0.2 mm 1 mps 583 mmHg 86%
    22:00 +1°C° 0.2 mm 1 mps 583 mmHg 91%
    23:00 +1°C° 0.1 mm 1 mps 583 mmHg 91%

    30 May, Saturday

    Time Temperature Precipitation Wind Pressure Humidity
    00:00 0°C° 0.1 mm 0 mps 583 mmHg 92%
    01:00 0°C° 0.1 mm 0 mps 583 mmHg 92%
    02:00 0°C° 0.1 mm 0 mps 583 mmHg 92%
    03:00 0°C° 0.1 mm 0 mps 582 mmHg 92%
    04:00 0°C° 0.1 mm 0 mps 582 mmHg 93%
    05:00 +1°C° 0 mm 0 mps 583 mmHg 90%
    06:00 +1°C° 0 mm 0 mps 583 mmHg 87%
    07:00 +2°C° 0 mm 0 mps 583 mmHg 84%
    08:00 +4°C° 0.1 mm 1 mps 584 mmHg 78%
    09:00 +5°C° 0.1 mm 1 mps 584 mmHg 72%
    10:00 +7°C° 0.1 mm 1 mps 585 mmHg 66%
    11:00 +8°C° 0.2 mm 1 mps 585 mmHg 61%
    12:00 +9°C° 0.2 mm 1 mps 585 mmHg 57%
    13:00 +10°C° 0.2 mm 1 mps 585 mmHg 53%
    14:00 +10°C° 0.3 mm 1 mps 585 mmHg 56%
    15:00 +8°C° 0.3 mm 2 mps 585 mmHg 59%
    16:00 +8°C° 0.3 mm 2 mps 584 mmHg 62%
    17:00 +7°C° 0.4 mm 2 mps 584 mmHg 68%
    18:00 +6°C° 0.4 mm 2 mps 584 mmHg 74%
    19:00 +5°C° 0.4 mm 1 mps 583 mmHg 80%
    20:00 +4°C° 0.1 mm 1 mps 583 mmHg 83%
    21:00 +2°C° 0.1 mm 1 mps 582 mmHg 86%
    22:00 +1°C° 0.1 mm 1 mps 582 mmHg 89%
    23:00 0°C° 0 mm 1 mps 582 mmHg 89%

    31 May, Sunday

    Time Temperature Precipitation Wind Pressure Humidity
    00:00 0°C° 0 mm 1 mps 581 mmHg 89%
    01:00 -1°C° 0 mm 1 mps 581 mmHg 89%
    02:00 -1°C° 0 mm 1 mps 581 mmHg 89%
    03:00 -1°C° 0 mm 1 mps 581 mmHg 89%
    04:00 -1°C° 0 mm 1 mps 580 mmHg 88%
    05:00 0°C° 0 mm 1 mps 581 mmHg 82%
    06:00 +2°C° 0 mm 1 mps 582 mmHg 76%
    07:00 +3°C° 0 mm 1 mps 583 mmHg 71%
    08:00 +5°C° 0 mm 1 mps 583 mmHg 63%
    09:00 +7°C° 0 mm 1 mps 584 mmHg 55%
    10:00 +9°C° 0 mm 1 mps 585 mmHg 47%
    11:00 +9°C° 0.2 mm 1 mps 585 mmHg 49%
    12:00 +10°C° 0.2 mm 1 mps 585 mmHg 51%
    13:00 +10°C° 0.2 mm 1 mps 585 mmHg 52%
    14:00 +9°C° 1 mm 1 mps 584 mmHg 60%
    15:00 +8°C° 1 mm 2 mps 584 mmHg 67%
    16:00 +7°C° 1 mm 2 mps 583 mmHg 75%
    17:00 +7°C° 1 mm 1 mps 583 mmHg 80%
    18:00 +6°C° 1 mm 1 mps 583 mmHg 84%
    19:00 +5°C° 1 mm 1 mps 582 mmHg 89%
    20:00 +4°C° 0.1 mm 1 mps 582 mmHg 90%
    21:00 +2°C° 0.1 mm 1 mps 581 mmHg 91%
    22:00 +1°C° 0.1 mm 1 mps 581 mmHg 93%
    23:00 +1°C° 0 mm 1 mps 581 mmHg 93%

    1 June, Monday

    Time Temperature Precipitation Wind Pressure Humidity
    00:00 0°C° 0 mm 1 mps 581 mmHg 93%
    01:00 0°C° 0 mm 1 mps 580 mmHg 93%
    02:00 0°C° 0 mm 1 mps 580 mmHg 93%
    03:00 0°C° 0 mm 1 mps 580 mmHg 92%
    04:00 -1°C° 0 mm 1 mps 580 mmHg 92%
    05:00 0°C° 0 mm 0 mps 581 mmHg 88%
    06:00 +2°C° 0 mm 0 mps 582 mmHg 83%
    07:00 +4°C° 0 mm 0 mps 583 mmHg 79%
    08:00 +6°C° 0 mm 0 mps 583 mmHg 69%
    09:00 +9°C° 0 mm 1 mps 584 mmHg 59%
    10:00 +11°C° 0 mm 1 mps 585 mmHg 49%
    11:00 +12°C° 0.1 mm 1 mps 585 mmHg 47%
    12:00 +12°C° 0.1 mm 1 mps 586 mmHg 45%
    13:00 +13°C° 0.1 mm 1 mps 586 mmHg 42%
    14:00 +13°C° 0.3 mm 2 mps 585 mmHg 45%
    15:00 +13°C° 0.3 mm 2 mps 585 mmHg 48%
    16:00 +12°C° 0.3 mm 2 mps 585 mmHg 51%
    17:00 +11°C° 0.4 mm 1 mps 584 mmHg 62%
    18:00 +9°C° 0.4 mm 1 mps 584 mmHg 73%
    19:00 +8°C° 0.4 mm 1 mps 583 mmHg 84%
    20:00 +7°C° 0.1 mm 1 mps 583 mmHg 86%
    21:00 +5°C° 0.1 mm 1 mps 582 mmHg 89%
    22:00 +3°C° 0.1 mm 0 mps 582 mmHg 91%
    23:00 +3°C° 0 mm 0 mps 582 mmHg 92%
    Show more